AirNav   Air Wisconsin Up To $57,000 Bonus
 
 972 users online  

MO7 St Louis Downtown Heliport
St Louis, Missouri, USA

GOING TO ST LOUIS?


FAA INFORMATION EFFECTIVE 26 JANUARY 2023

Location

FAA Identifier: MO7
Lat/Long: 38-37-31.2000N 090-10-58.8000W
38-37.520000N 090-10.980000W
38.6253333,-90.1830000
(estimated)
Elevation: 387 ft. / 118 m (estimated)
Time zone: UTC -6 (UTC -5 during Daylight Saving Time)
Zip code: 63101

Heliport Operations

Heliport use: Open to the public
Activation date: 07/2006
Control tower: no
ARTCC: KANSAS CITY CENTER
FSS: SAINT LOUIS FLIGHT SERVICE STATION
NOTAMs facility: STL (NOTAM-D service available)
Attendance: 0900-1900
SVC AFT HRS ABVL FOR FEE; CONTACT HELIPORT MGR. 618-514-0206
Wind indicator: yes
Segmented circle: no

Heliport Communications

UNICOM: 122.8
WX ASOS at CPS (4 nm S): PHONE 618-332-0001
WX ASOS at STL (11 nm NW): PHONE 314-890-4790
WX AWOS-3 at ALN (17 nm N): 128.0 (618-259-7231)

Nearby radio navigation aids

VOR radial/distance  VOR name  Freq  Var
TOYr237/14.1TROY VORTAC116.0004E
STLr134/19.9ST LOUIS VORTAC117.4001E
FTZr091/37.2FORISTELL VORTAC110.8005E

 
NDB name  Hdg/Dist  Freq  Var  ID
ACORE317/8.635000ECP -.-. .--.

Heliport Services

Runway Information

Helipad H1

Dimensions: 37 x 37 ft. / 11 x 11 m
Surface: mats, in good condition
RIVER BARGE PLATFOR MEASURES APRXLY 175 FT BY 54 FT.
Traffic pattern: leftleft
Markings: basic, in good condition

Heliport Ownership and Management from official FAA records

Ownership: Privately-owned
Owner: BI STATE DEVELOPMENT AGENCY
1680 SAUGET INDUSTRIAL PKWY
SAUGET, IL 62206
Phone 618-337-6060
Manager: SANDRA SHORE
6100 ARCHVIEW DRIVE
CAHOKIA, IL 62206-1445
Phone 618-337-6060

Heliport Operational Statistics

Aircraft operations: avg 66/day *
100% local general aviation
* for 12-month period ending 31 December 2021

Additional Remarks

CALL HELIPORT MGR BEFORE ARR FOR LNDG AVAILABILITY DUE TO HVY CONCENTRATION OF AIR TAXI OPNS. 618-514-0206
LNDGS FM THE SOUTHE & EAST ARE RECOMMENDED.
DAYLIGHT OPNS ONLY; NGT OPNS NOT RECOMMENDED.
FOR CD CTC ST LOUIS APCH AT 314-890-1017.

Instrument Procedures

There are no published instrument procedures at MO7.

Some nearby airports with instrument procedures:

KCPS - St Louis Downtown Airport (4 nm S)
KSTL - St Louis Lambert International Airport (11 nm NW)
1H0 - Creve Coeur Airport (16 nm W)
KBLV - Scott Air Force Base/MidAmerica Airport (17 nm E)
KALN - St Louis Regional Airport (17 nm N)
 
Loc | Ops | Rwys | IFR | FBO | Links
Com | Nav | Svcs | Stats | Notes
Area around MO7 (St Louis Downtown Heliport)
 
Road maps at: MapQuest Bing Google
 
Aerial photo
WARNING: Photo may not be current or correct
Aerial photo of MO7 (St Louis Downtown Heliport)
Do you have a better or more recent aerial photo of St Louis Downtown Heliport that you would like to share? If so, please send us your photo.

 
Sectional chart

 
Airport distance calculator
Flying to St Louis Downtown Heliport? Find the distance to fly.

From to MO7

Sunrise and sunset
Times for 01-Feb-2023
 Local
(UTC-6)
 Zulu
(UTC)
Morning civil twilight06:3912:39
Sunrise07:0713:07
Sunset17:2123:21
Evening civil twilight17:4923:49

Current date and time
Zulu (UTC)  01-Feb-2023 12:59:24
Local (UTC-6)  01-Feb-2023 06:59:24
 
METAR
KCPS 
4nm SE 
011253Z 00000KT 10SM CLR M09/M11 A3044 RMK AO2 SLP313 T10891111
KSTL 
11nm NW 
011251Z 00000KT 10SM BKN250 M08/M12 A3042 RMK AO2 SLP318 T10781122 $
KALN 
17nm NE 
011250Z 00000KT 10SM CLR M10/M12 A3043
KBLV 
17nm E 
011155Z 00000KT 10SM BKN150 M10/M13 A3043 RMK AO2A SLP316 T10961127 11072 21105 50004 $
TAF
KCPS 
4nm SE 
011120Z 0112/0212 19003KT P6SM BKN250
KSTL 
11nm NW 
010520Z 0106/0212 00000KT P6SM BKN250 FM011600 18005KT P6SM SCT250
KBLV 
17nm E 
010800Z 0108/0214 VRB06KT 9999 BKN150 QNH3023INS TX00/0120Z TNM09/0109Z
NOTAMs
Click for the latest NOTAMs
NOTAMs are issued by the DoD/FAA and will open in a separate window not controlled by AirNav.

 

 
 

Would you like to see your business listed on this page?

 If your business provides an interesting product or service to pilots, flight crews, aircraft, or users of the St Louis Downtown Heliport, you should consider listing it here.  To start the listing process, click on the button below
 
Add a business
 

Other Pages about St Louis Downtown Heliport

Update a link
 
Copyright © AirNav, LLC. All rights reserved. Privacy Policy  Contact